STARLINK-2013 (47636 NORAD) Tracking and Keplerian Element Data
This shows tracking and keplerian element data for the satellite.
Feedback or suggestion? Click here.
Element | Value |
Catalog | 47636 |
Name | STARLINK-2013 |
Epoch Orbit | 178 |
Epoch Day | 59.91667824 |
Epoch Year | 2021 |
RAAN | 38.1117 |
Inclination | 53.0498 |
Eccentricity | 0.0001497 |
Argument of Perigee | 109.1163 |
Mean Anonmoly | 15.8932 |
Mean Motion | 15.86420399 |
Decay Rate | 0.00098537 |
L1 | 1 47636U 21012S 21059.91667824 .00098537 00000-0 38233-3 0 9996 |
L2 | 2 47636 53.0498 38.1117 0001497 109.1163 15.8932 15.86420399 1781 |
Live tracking and technical data element details for STARLINK-2013 (NORAD 47636). STARLINK-2013 can be tracked NOW for your location showing map with azimuth and elevation plus other details from your city location.
Track the satellite on the map from your city or location and see movement details for azimuth, elevation, latitude, longitude, range, height, and movement on the map or in text.
IsCatalogInMostPopularTable: catalog: 47636, numindb: 3
Update: records affected: 1
GetName: 47636 STARLINK-2013
Hit Count: updated at: Mon, 01 Mar 2021 17:04:14 GMT